MMS 1

Last updated on Jan. 20, 2020, 4:31 a.m. UTC

1 40482U 15011A   20019.61597222 -.00002196  00000-0  00000-0 0  9991
2 40482  23.6146 120.3119 8799372  17.6135 156.6419  0.28570819 10820
UTC
Height (km)
Latitude
Longitude
Inclination
Orbital Period
UTC large
Height (km)
Speed (km/s)
/
Latitude / Longitude
Inclination (degrees)
Orbital Period (minutes)
Azimuth
Elevation
Range (km)
Doppler Factor
iOS Compass Heading
iOS Angle

Next 30 passes for location: Hong Kong

Rise time Rise Azimuth (degrees) Set time Set Azimuth (degrees) Duration Max altitude (degrees)

No matching passes for this satellites